STARLINK-33786, 63514

Orbit data source: Space-Track

STARLINK-33786, 63514 is a payload satellite owned by SpaceX/Seattle (US) in LEO that was launched on Mon, 07 Apr 2025 UTC via an FALCON 9 launch vehicle from the Air Force Western Test Range (AFWTR). Payload-class satellites include a variety of spacecraft equipped with specific instruments for various scientific and technological missions. These include communications satellites like Starlink; space stations such as the ISS; scientific satellites like the Hubble; Earth observation satellites from companies like Planet Labs, Umbra, and HawkEye 360; GPS; miniature CubeSats for education and research; and military/defense satellites.

Loading next visibility...
Identifier
63514, 2025-071X
Orbit
LEO
Last TLE update
7 hours ago
Origin
Manufacturer
SpaceX/Seattle
Mission
Operational Commercial Communications
Bus & Motor
STARLINK V2MO, Unknown motor
Mass
575 kg wet, ~530 kg dry
Launch date (UTC)
2025-04-07 (3 months ago)
Launch vehicle
FALCON 9
Launch site
Air Force Western Test Range (AFWTR)
Object type
Payload
Rocket body
Debris
Shape & HBR
Box + 1 Pan, 29 m
Radar Cross Section
41.120 m², Large (>1 m²)

Expand to show TLE details & history

TLE from 7 hours ago
0 STARLINK-33786
1 63514U 25071X   25186.45924659  .00020230  00000-0  69327-3 0  9997
2 63514  53.1586 208.5426 0001202  69.7401 290.3729 15.30201343 14535
Epoch: 2025-07-05T11:01Z
TLE epoch observation values (Epoch: 2025-07-05T11:01:18.905Z)
Latitude
-0.00001°
Longitude
119.51684°
Altitude
475.824 km
Speed
7.629 km/s
True Right ascension
13h 54m 10s
True Declination
0° 00' 00"
Sunlit
Object was in daylight at epoch
Visualization orbit readout
Latitude
-52.78209°
Longitude
39.26101°
Altitude
494.251 km
Speed
7.617 km/s
Apparent Right ascension
14h 32m 24s
Apparent Declination
-74° 46' 07"
Sunlit
Object is in daylight
Visualization observer readout
Local Sidereal Time
06:25:21
Azimuth
161.07° S
Elevation
-46.486°
Doppler factor
1
Orbital elements
Apogee altitude
476.292 km
Perigee altitude
474.644 km
Semi-major axis
6,853.605 km
Eccentricity
0.00012
Inclination
53.1586°
RAAN
208.5426°
Arg. of periapsis
69.7401°
True anomaly
Unknown
Mean anomaly
290.3729°
Eccentric anomaly
Unknown
Mean motion
3.82529 °/min
Orbital period
94.11 mins
BSTAR
0.00069327
Loading maneuver chart data...
Loading SW <> Apogee altitude chart data...
Loading historical data...
Loading historical data...
Loading historical data...
Loading historical data...
Loading historical data...
Loading historical data...
Loading historical data...

STARLINK-33786 Visibility forecast

Observer location: undefined°, undefined°

Span
Click to sort rows by Start time (UTC) header in descending order
Start Az.
Max El. time (UTC)
Max El. Az.
Max El.
End time (UTC)
End Az.
6 mins2025-07-06 04:27:48.416Z239.993° WSW2025-07-06 04:29:48.416Z273.733° WNW41.445°2025-07-06 04:33:48.416Z46.14° ENE
4 mins2025-07-06 09:24:48.416Z341.957° N2025-07-06 09:26:48.416Z19.069° NNE17.901°2025-07-06 09:28:48.416Z58.899° ENE
6 mins2025-07-06 11:02:48.416Z308.456° NW2025-07-06 11:04:48.416Z299.825° NW42.368°2025-07-06 11:08:48.416Z133.017° SE
|